Rhodes, Greece

7:03 AM EEST on April 30, 2017 (GMT +0300)
Diagoras

Weather History for LGRP - March, 2013

Change the Weather History Date:

Friday, March 15, 2013

  Actual Average Record
Temperature  
Mean Temperature 61 °F -  
Max Temperature 65 °F 65 °F 68 °F (2011)
Min Temperature 57 °F 52 °F 46 °F (2008)
Degree Days  
Heating Degree Days 4    
Growing Degree Days 11 (Base 50)    
Moisture  
Dew Point 54 °F    
Average Humidity 74    
Maximum Humidity 94    
Minimum Humidity 48    
Precipitation  
Precipitation 0.12 in 0.06 in - ()
Sea Level Pressure  
Sea Level Pressure 29.58 in    
Wind  
Wind Speed 14 mph ()    
Max Wind Speed 23 mph    
Max Gust Speed 40 mph    
Visibility 5.9 miles    
Events Rain , Thunderstorm    
Averages and records for this station are not official NWS values.
T = Trace of Precipitation, MM = Missing Value Source: Averaged Metar Reports

Daily Weather History Graph

Daily Weather History Graph

Search for Another Location

Airport or City:

Trip Planner

Search our weather history database for the weather conditions in past years. The results will help you decide how hot, cold, wet, or windy it might be!

Date:

Astronomy

Mar. 15, 2013 Rise Set
Actual Time 6:18 AM EET 6:15 PM EET
Civil Twilight 5:52 AM EET 6:40 PM EET
Nautical Twilight 5:23 AM EET 7:10 PM EET
Astronomical Twilight 4:52 AM EET 7:40 PM EET
Moon 8:03 AM EET (3/15) 10:02 PM EET (3/15)
Length of Visible Light 12h 47m
Length of Day
11h 56m
Waxing Crescent, 13% of the Moon is Illuminated
Mar 15
Waxing Crescent
Mar 19
First Quarter
Mar 27
Full
Apr 3
Last Quarter
Apr 10
New

Hourly Weather History & Observations

Time (EET) Temp. Dew Point Humidity Pressure Visibility Wind Dir Wind Speed Gust Speed Precip Events Conditions
12:20 AM 66.2 °F 59.0 °F 78% 29.50 in 6.2 mi ESE 19.6 mph 39.1 mph N/A   Mostly Cloudy
12:50 AM 66.2 °F 59.0 °F 78% 29.50 in 6.2 mi ESE 23.0 mph 38.0 mph N/A   Mostly Cloudy
1:20 AM 66.2 °F 59.0 °F 78% 29.50 in 6.2 mi Variable 18.4 mph 36.8 mph N/A   Mostly Cloudy
1:50 AM 66.2 °F 59.0 °F 78% 29.47 in 6.2 mi ESE 18.4 mph 40.3 mph N/A   Mostly Cloudy
2:00 AM 65 °F 59 °F 76% 29.50 in 6 mi ESE 18.4 mph - -   Overcast
2:20 AM 66.2 °F 59.0 °F 78% 29.47 in 6.2 mi ESE 19.6 mph 34.5 mph N/A   Mostly Cloudy
2:50 AM 64.4 °F 59.0 °F 83% 29.47 in 6.2 mi SE 19.6 mph 39.1 mph N/A   Mostly Cloudy
3:20 AM 64.4 °F 59.0 °F 83% 29.47 in 6.2 mi Variable 9.2 mph 25.3 mph N/A   Mostly Cloudy
3:50 AM 64.4 °F 60.8 °F 88% 29.50 in 6.2 mi Variable 10.4 mph 24.2 mph N/A   Mostly Cloudy
4:50 AM 64.4 °F 55.4 °F 73% 29.50 in 6.2 mi East 17.3 mph 28.8 mph N/A   Mostly Cloudy
5:20 AM 64.4 °F 55.4 °F 73% 29.50 in 6.2 mi East 10.4 mph 21.9 mph N/A   Mostly Cloudy
5:50 AM 64.4 °F 55.4 °F 73% 29.53 in 6.2 mi ESE 10.4 mph 21.9 mph N/A   Mostly Cloudy
6:20 AM 64.4 °F 55.4 °F 73% 29.53 in 6.2 mi ESE 10.4 mph 24.2 mph N/A   Mostly Cloudy
6:50 AM 66.2 °F 55.4 °F 68% 29.53 in 6.2 mi ESE 6.9 mph - N/A   Mostly Cloudy
7:20 AM 66.2 °F 55.4 °F 68% 29.53 in 6.2 mi Variable 5.8 mph 17.3 mph N/A   Overcast
7:50 AM 64.4 °F 53.6 °F 68% 29.50 in 6.2 mi East 10.4 mph 21.9 mph N/A   Overcast
8:20 AM 64.4 °F 53.6 °F 68% 29.50 in 6.2 mi East 5.8 mph 17.3 mph N/A   Overcast
8:50 AM 64.4 °F 55.4 °F 73% 29.53 in 5.0 mi WSW 6.9 mph - N/A   Overcast
9:20 AM 66.2 °F 55.4 °F 68% 29.53 in 5.0 mi WSW 6.9 mph - N/A   Overcast
9:50 AM 64.4 °F 55.4 °F 73% 29.56 in 4.3 mi WSW 11.5 mph - N/A   Overcast
10:20 AM 64.4 °F 55.4 °F 73% 29.59 in 5.0 mi WSW 17.3 mph - N/A   Overcast
10:50 AM 62.6 °F 57.2 °F 82% 29.59 in 5.0 mi WSW 17.3 mph - N/A   Overcast
11:20 AM 62.6 °F 57.2 °F 82% 29.59 in 5.0 mi WSW 17.3 mph - N/A   Overcast
11:50 AM 62.6 °F 57.2 °F 82% 29.59 in 5.0 mi WSW 18.4 mph - N/A   Overcast
12:20 PM 62.6 °F 57.2 °F 82% 29.59 in 5.0 mi WSW 18.4 mph - N/A   Overcast
12:50 PM 62.6 °F 59.0 °F 88% 29.59 in 5.0 mi WSW 20.7 mph - N/A   Overcast
1:20 PM 62.6 °F 59.0 °F 88% 29.59 in 5.0 mi WSW 20.7 mph - N/A Rain Light Rain
1:50 PM 60.8 °F 51.8 °F 72% 29.59 in 6.2 mi WSW 18.4 mph - N/A   Overcast
2:00 PM 61 °F 52 °F 64% 29.61 in 6 mi WSW 18.4 mph - - Rain Light Rain
2:20 PM 60.8 °F 51.8 °F 72% 29.59 in 6.2 mi WSW 17.3 mph - N/A   Overcast
2:50 PM 60.8 °F 51.8 °F 72% 29.59 in 6.2 mi WSW 15.0 mph - N/A   Overcast
3:20 PM 60.8 °F 51.8 °F 72% 29.59 in 6.2 mi WSW 15.0 mph - N/A   Mostly Cloudy
3:50 PM 60.8 °F 51.8 °F 72% 29.62 in 6.2 mi WSW 15.0 mph - N/A   Mostly Cloudy
4:20 PM 60.8 °F 51.8 °F 72% 29.62 in 6.2 mi WSW 16.1 mph - N/A   Mostly Cloudy
4:50 PM 62.6 °F 50.0 °F 63% 29.62 in 6.2 mi WSW 15.0 mph - N/A   Scattered Clouds
5:20 PM 62.6 °F 50.0 °F 63% 29.62 in 6.2 mi WSW 16.1 mph - N/A   Scattered Clouds
5:50 PM 60.8 °F 50.0 °F 68% 29.65 in 6.2 mi WSW 17.3 mph - N/A   Scattered Clouds
6:20 PM 60.8 °F 50.0 °F 68% 29.65 in 6.2 mi WSW 15.0 mph - N/A   Scattered Clouds
6:50 PM 59.0 °F 50.0 °F 72% 29.65 in 6.2 mi WSW 16.1 mph - N/A   Scattered Clouds
7:20 PM 59.0 °F 50.0 °F 72% 29.65 in 6.2 mi WSW 13.8 mph - N/A   Scattered Clouds
7:50 PM 59.0 °F 44.6 °F 59% 29.68 in 6.2 mi West 15.0 mph - N/A   Scattered Clouds
8:00 PM 59 °F 44 °F 48% 29.70 in 6 mi West 15.0 mph - -   Partly Cloudy
8:20 PM 59.0 °F 44.6 °F 59% 29.68 in 6.2 mi West 12.7 mph - N/A   Scattered Clouds
8:50 PM 57.2 °F 46.4 °F 67% 29.71 in 6.2 mi WSW 11.5 mph - N/A   Scattered Clouds
9:20 PM 57.2 °F 46.4 °F 67% 29.71 in 6.2 mi SSW 9.2 mph - N/A   Scattered Clouds
9:50 PM 57.2 °F 50.0 °F 77% 29.71 in 6.2 mi SW 10.4 mph - N/A   Scattered Clouds
10:50 PM 57.2 °F 50.0 °F 77% 29.71 in 6.2 mi WSW 9.2 mph - N/A   Scattered Clouds
11:20 PM 57.2 °F 50.0 °F 77% 29.71 in 6.2 mi WSW 9.2 mph - N/A   Scattered Clouds
11:50 PM 57.2 °F 55.4 °F 94% 29.71 in 6.2 mi WSW 4.6 mph - N/A Rain , Thunderstorm Light Thunderstorms and Rain